Location: Home
(42.5358°N, 72.7383°W)
Time: 09:39:13
(UTC-05:00)

S-56A Canister/Altair - Pass Details

Date: 30 November 2021
Orbit: 634 x 2499 km, 38.9° (Epoch: 22 January)

Event Time Altitude Azimuth Distance (km) Brightness Sun altitude
Rises 02:14:00 0° 252° (WSW) 4,333 - -51.7°
Reaches altitude 10° 02:17:26 10° 249° (WSW) 3,066 - -51.1°
Maximum altitude 02:24:19 57° 173° (S) 1,020 - -49.9°
Drops below altitude 10° 02:29:14 10° 95° (E) 2,204 - -49.1°
Exits shadow 02:31:02 - 91° (E) 2,901 11.1 -48.8°
Sets 02:31:21 0° 91° (E) 3,025 11.2 -48.7°
